Date String (YYYY-MM-DD hh:mm:ss) UTC,Instrument flags,Ambient pressure (hPa),Sample flow (lpm),Bypass flow (lpm),Sample temperature (°C),Ambient temperature (°C),ASC tube jacket temperature (°C),LED temperature (°C),Box temperature (°C),Sample RH (%),Span deviation,Mass concentration (μg/m³),Mass concentration (μg/m³),Mass concentration (μg/m³)
DateTimeUTC,F1_M11,P_M11,Q1_M11,Q2_M11,T1_M11,T2_M11,T3_M11,T4_M11,T5_M11,U1_M11,ZSPAN_M11,X0_M11,X2_M11,X1_M11
2022-02-12 09:00:00,,0835.0,5.00,0.00,21.8,21.6,00.0,30.9,23.5,08.6,0000.0,0005.04,0003.26,0003.14
2022-02-12 09:01:00,,0835.1,4.98,0.00,21.9,22.3,00.0,31.0,23.8,08.4,0000.0,0004.98,0003.23,0003.11
2022-02-12 09:02:00,,0835.1,5.02,0.00,22.1,23.0,00.0,31.0,24.0,08.3,0000.0,0005.76,0003.21,0003.09
2022-02-12 09:03:00,,0835.1,4.99,0.00,22.2,22.9,00.0,31.0,24.1,08.3,0000.0,0006.01,0003.18,0003.06
2022-02-12 09:04:00,,0835.0,5.01,0.00,22.2,22.6,00.0,31.0,24.0,08.2,0000.0,0005.83,0003.15,0003.04
2022-02-12 09:05:00,,0835.0,5.00,0.00,22.1,22.2,00.0,31.0,23.9,08.2,0000.0,0005.81,0003.13,0003.01
2022-02-12 09:06:00,,0835.0,4.99,0.00,22.1,22.0,00.0,31.0,23.8,08.2,0000.0,0004.60,0003.11,0003.00
2022-02-12 09:07:00,,0835.0,4.99,0.00,22.0,21.7,00.0,31.0,23.7,08.2,0000.0,0004.56,0003.10,0002.99
2022-02-12 09:08:00,,0835.0,5.01,0.00,22.0,21.5,00.0,31.0,23.6,08.3,0000.0,0004.57,0003.10,0002.98
2022-02-12 09:09:00,,0835.0,5.00,0.00,21.9,21.3,00.0,31.0,23.4,08.4,0000.0,0004.57,0003.09,0002.97
2022-02-12 09:10:00,,0834.9,4.99,0.00,21.8,21.1,00.0,31.0,23.3,08.6,0000.0,0004.51,0003.07,0002.97
2022-02-12 09:11:00,,0835.0,5.01,0.00,21.8,21.0,00.0,31.0,23.3,08.7,0000.0,0004.48,0003.06,0002.96
2022-02-12 09:12:00,,0834.9,5.01,0.00,21.7,21.0,00.0,30.9,23.3,08.8,0000.0,0004.50,0003.07,0002.97
2022-02-12 09:13:00,,0834.9,4.99,0.00,21.8,21.3,00.0,30.9,23.3,08.9,0000.0,0003.96,0003.07,0002.96
2022-02-12 09:14:00,,0834.9,5.01,0.00,21.9,22.1,00.0,31.0,23.6,08.9,0000.0,0003.32,0003.08,0002.95
2022-02-12 09:15:00,,0835.0,4.99,0.00,22.0,22.9,00.0,31.0,24.0,08.9,0000.0,0003.35,0003.08,0002.94
2022-02-12 09:16:00,,0835.0,5.00,0.00,22.2,23.1,00.0,31.0,24.1,08.9,0000.0,0003.32,0003.08,0002.95
2022-02-12 09:17:00,,0835.0,5.01,0.00,22.2,22.8,00.0,31.0,24.1,08.9,0000.0,0003.29,0003.08,0002.95
2022-02-12 09:18:00,,0835.0,5.00,0.00,22.2,22.5,00.0,31.1,24.0,08.8,0000.0,0003.32,0003.10,0002.97
2022-02-12 09:19:00,,0835.0,5.00,0.00,22.1,22.2,00.0,31.1,23.9,08.7,0000.0,0003.35,0003.11,0002.98
2022-02-12 09:20:00,,0835.0,5.00,0.00,22.1,21.9,00.0,31.1,23.8,08.6,0000.0,0003.41,0003.13,0002.98
2022-02-12 09:21:00,,0835.0,4.99,0.00,22.0,21.7,00.0,31.1,23.7,08.5,0000.0,0003.47,0003.13,0002.97
2022-02-12 09:22:00,,0835.0,5.00,0.00,22.0,21.5,00.0,31.0,23.6,08.4,0000.0,0003.55,0003.15,0002.98
2022-02-12 09:23:00,,0835.1,5.02,0.00,22.0,21.4,00.0,31.0,23.5,08.3,0000.0,0003.53,0003.14,0002.98
2022-02-12 09:24:00,,0835.0,5.00,0.00,21.9,21.2,00.0,31.0,23.5,08.3,0000.0,0003.54,0003.14,0002.98
2022-02-12 09:25:00,,0835.0,4.99,0.00,21.9,21.1,00.0,31.0,23.4,08.2,0000.0,0003.45,0003.13,0002.98
2022-02-12 09:26:00,,0835.0,5.01,0.00,21.8,21.0,00.0,31.0,23.3,08.2,0000.0,0003.42,0003.12,0002.98
2022-02-12 09:27:00,,0835.0,4.99,0.00,21.8,21.2,00.0,31.0,23.3,08.1,0000.0,0004.23,0003.12,0002.96
2022-02-12 09:28:00,,0835.0,5.00,0.00,21.9,21.9,00.0,31.0,23.6,08.1,0000.0,0004.97,0003.10,0002.94
2022-02-12 09:29:00,,0835.0,5.00,0.00,22.0,22.6,00.0,31.0,23.9,08.0,0000.0,0004.99,0003.06,0002.89
2022-02-12 09:30:00,,0835.0,5.01,0.00,22.2,23.1,00.0,31.1,24.1,08.0,0000.0,0004.99,0003.04,0002.86
2022-02-12 09:31:00,,0835.0,4.99,0.00,22.2,22.9,00.0,31.1,24.1,07.9,0000.0,0005.00,0003.03,0002.84
2022-02-12 09:32:00,,0835.0,5.01,0.00,22.2,22.5,00.0,31.1,24.0,08.0,0000.0,0005.01,0003.02,0002.82
2022-02-12 09:33:00,,0834.9,4.99,0.00,22.2,22.2,00.0,31.1,23.9,07.9,0000.0,0004.95,0002.99,0002.79
2022-02-12 09:34:00,,0834.9,4.99,0.00,22.1,22.0,00.0,31.1,23.8,07.9,0000.0,0004.92,0002.97,0002.78
2022-02-12 09:35:00,,0834.8,4.99,0.00,22.1,21.7,00.0,31.1,23.7,07.9,0000.0,0004.86,0002.95,0002.78
2022-02-12 09:36:00,,0834.8,5.02,0.00,22.0,21.5,00.0,31.1,23.6,07.9,0000.0,0004.98,0003.01,0002.79
2022-02-12 09:37:00,,0834.8,5.00,0.00,22.0,21.3,00.0,31.0,23.5,07.9,0000.0,0005.07,0003.03,0002.79
2022-02-12 09:38:00,,0834.8,4.99,0.00,21.9,21.2,00.0,31.0,23.4,07.9,0000.0,0004.30,0003.04,0002.79
2022-02-12 09:39:00,,0834.7,5.00,0.00,21.8,21.1,00.0,31.0,23.4,07.9,0000.0,0003.59,0003.05,0002.78
2022-02-12 09:40:00,,0834.7,5.00,0.00,21.8,20.9,00.0,31.0,23.3,07.8,0000.0,0003.51,0003.03,0002.77
2022-02-12 09:41:00,,0834.7,5.00,0.00,21.8,21.1,00.0,31.0,23.3,07.9,0000.0,0003.48,0003.02,0002.76
2022-02-12 09:42:00,,0834.7,4.99,0.00,21.9,21.8,00.0,31.0,23.6,07.8,0000.0,0003.44,0002.99,0002.73
2022-02-12 09:43:00,,0834.8,5.02,0.00,22.0,22.6,00.0,31.0,23.9,07.7,0000.0,0003.36,0002.95,0002.71
2022-02-12 09:44:00,,0834.8,4.99,0.00,22.1,23.0,00.0,31.1,24.1,07.6,0000.0,0003.36,0002.93,0002.69
2022-02-12 09:45:00,,0834.7,5.01,0.00,22.2,22.7,00.0,31.1,24.1,07.6,0000.0,0003.34,0002.90,0002.66
2022-02-12 09:46:00,,0834.7,4.98,0.00,22.2,22.4,00.0,31.1,24.0,07.6,0000.0,0003.37,0002.88,0002.61
2022-02-12 09:47:00,,0834.7,5.00,0.00,22.1,22.1,00.0,31.1,23.9,07.6,0000.0,0003.32,0002.83,0002.56
2022-02-12 09:48:00,,0834.7,5.01,0.00,22.1,21.8,00.0,31.1,23.8,07.7,0000.0,0003.23,0002.78,0002.52
2022-02-12 09:49:00,,0834.7,5.01,0.00,22.0,21.6,00.0,31.0,23.7,07.7,0000.0,0003.15,0002.74,0002.50
2022-02-12 09:50:00,,0834.7,4.98,0.00,22.0,21.5,00.0,31.0,23.6,07.6,0000.0,0003.11,0002.70,0002.47
2022-02-12 09:51:00,,0834.7,5.00,0.00,21.9,21.3,00.0,31.0,23.5,07.6,0000.0,0003.18,0002.70,0002.45
2022-02-12 09:52:00,,0834.7,5.01,0.00,21.9,21.2,00.0,31.0,23.4,07.6,0000.0,0003.32,0002.72,0002.43
2022-02-12 09:53:00,,0834.6,4.99,0.00,21.8,21.1,00.0,31.0,23.3,07.6,0000.0,0003.21,0002.67,0002.41
2022-02-12 09:54:00,,0834.7,5.00,0.00,21.8,21.0,00.0,31.0,23.3,07.5,0000.0,0003.18,0002.65,0002.41
2022-02-12 09:55:00,,0834.7,5.01,0.00,21.8,21.3,00.0,30.9,23.3,07.5,0000.0,0003.21,0002.64,0002.39
2022-02-12 09:56:00,,0834.7,5.00,0.00,21.9,22.1,00.0,31.0,23.7,07.4,0000.0,0003.22,0002.61,0002.37
2022-02-12 09:57:00,,0834.6,4.99,0.00,22.0,22.7,00.0,31.0,23.9,07.3,0000.0,0003.20,0002.60,0002.35
2022-02-12 09:58:00,,0834.6,5.00,0.00,22.1,22.7,00.0,31.0,24.0,07.3,0000.0,0003.18,0002.58,0002.34
2022-02-12 09:59:00,,0834.6,5.01,0.00,22.1,22.3,00.0,31.0,23.9,07.2,0000.0,0003.09,0002.53,0002.32
